Location: Jastrz?bniki
(50.3667°N, 20.3833°E)
Time: 11:03:36
(UTC+00:00)

NOAA 11 - Pass Details

Date: 05 August 2024
Orbit: 832 x 848 km, 98.5° (Epoch: 09 September)

Event Time Altitude Azimuth Distance (km) Brightness Sun altitude
Rises 01:53:56 0° 16° (NNE) 3,392 8.5 -11.0°
Reaches altitude 10° 01:56:19 10° 19° (NNE) 2,454 7.7 -10.7°
Maximum altitude 02:01:45 70° 102° (ESE) 890 4.5 -10.1°
Drops below altitude 10° 02:07:09 10° 187° (S) 2,441 6.2 -9.4°
Enters shadow 02:08:44 - 189° (S) 3,065 6.7 -9.2°
